Hourly Data Report for September 16, 2017

All times are specified in Local Standard Time (LST). Add 1 hour to adjust for Daylight Saving Time where and when it is observed.

BUCTOUCHE CDA CS
NEW BRUNSWICK

46°25'49.006" N
64°46'05.009" W
35.90 m
8100593
71666
ABT

Download Data

Hourly Data (September 2017)
Hourly Data Report for September 16, 2017
Temp Definition
°C
Dew Point Temp Definition
°C
Rel Hum Definition
%
Wind Dir Definition
10's deg

Wind Spd Definition
km/h
Visibility Definition
km
Stn Press Definition
kPa
Hmdx Definition


Wind Chill Definition


Weather Definition


TIME
00:00 13.8 10.7 81 16 10   101.48     LegendNANA
01:00 12.4 9.8 84 17 2   101.48     LegendNANA
02:00 12.1 10.2 88 20 8   101.41     LegendNANA
03:00 12.8 11.3 91 23 10   101.41     LegendNANA
04:00 12.4 11.4 94 24 8   101.47     LegendNANA
05:00 13.6 12.9 95 22 7   101.42     LegendNANA
06:00 14.7 14.0 95 21 14   101.40     LegendNANA
07:00 15.5 14.8 96 23 13   101.44     LegendNANA
08:00 16.1 15.3 95 22 16   101.45     LegendNANA
09:00 17.7 16.2 91 23 15   101.46     LegendNANA
10:00 19.1 16.7 86 22 18   101.42     LegendNANA
11:00 20.8 16.8 78 22 18   101.38 26   LegendNANA
12:00 23.1 17.1 69 23 15   101.34 28   LegendNANA
13:00 25.0 17.2 62 23 13   101.32 30   LegendNANA
14:00 26.4 16.5 55 24 11   101.29 31   LegendNANA
15:00 26.4 15.3 50 32 9   101.32 31   LegendNANA
16:00 18.1 13.6 75 2 17   101.45     LegendNANA
17:00 16.7 12.9 78 3 15   101.55     LegendNANA
18:00 15.6 11.5 77 5 13   101.61     LegendNANA
19:00 14.8 10.9 77 3 13   101.69     LegendNANA
20:00 14.4 10.6 78 5 9   101.72     LegendNANA
21:00 14.2 10.6 79 7 8   101.74     LegendNANA
22:00 13.2 10.4 83 6 5   101.73     LegendNANA
23:00 13.4 11.3 87 5 6   101.73     LegendNANA

Notes on Data Quality.

Legend

  • E = Estimated
  • M = Missing
  • NA = Not Available
  • ‡ = Partner data that is not subject to review by the National Climate Archives
Date modified: